Tracking 22836 objects as of 18-Apr-2021
HD Live streaming from Space Station
objects crossing your sky now

AUREOLE 2

Track AUREOLE 2 now!
10-day predictions
AUREOLE 2 is classified as:


NORAD ID: 7003
Int'l Code: 1973-107A
Perigee: 373.2 km
Apogee: 899.3 km
Inclination: 73.9 °
Period: 97.3 minutes
Semi major axis: 7007 km
RCS: 2.1042 m2 (large)
Launch date: December 26, 1973
Source: France (FR)
Launch site: PLESETSK MISSILE AND SPACE COMPLEX (PKMTR)
aabbcc
Your satellite tracking list
Your tracking list is empty




NASA's NSSDC Master Catalog

Two Line Element Set (TLE):
1 07003U 73107A   21107.88008872  .00002282  00000-0  88935-4 0  9991
2 07003  73.9238 131.6809 0375438 158.3794 203.3726 14.80062821420246
Source of the keplerian elements: AFSPC